When you browse on this site, cookies collect data to enhance your experience and personalize the content and advertising you see.
Visit our Privacy Policy to learn more. By continuing to use the site, you agree to this use of cookies and data.
  • în România
  • Lista ţărilor
  • Pe 7 zile
  • Temperatura apei
  • Meteo pe hartă
  • Widget-uri
  • user-avatar
    Intrare

    Meteo pe oră la Ordino

    Astăzi, 10 Decembrie, Marţi

    Timp Temperatura Precipitaţii Vânt Presiune Umiditate
    00:00 -3°C° 0 mm 4 m/s 635 mmHg 92%
    01:00 -3°C° 0.3 mm 4 m/s 635 mmHg 92%
    02:00 -4°C° 0.3 mm 4 m/s 635 mmHg 91%
    03:00 -4°C° 0.3 mm 4 m/s 635 mmHg 90%
    04:00 -4°C° 0.1 mm 4 m/s 635 mmHg 89%
    05:00 -5°C° 0.1 mm 4 m/s 635 mmHg 87%
    06:00 -5°C° 0.1 mm 4 m/s 634 mmHg 86%
    07:00 -4°C° 0 mm 3 m/s 635 mmHg 76%
    08:00 -2°C° 0 mm 3 m/s 635 mmHg 65%
    09:00 0°C° 0 mm 3 m/s 636 mmHg 55%
    10:00 +1°C° 0 mm 3 m/s 636 mmHg 55%
    11:00 +3°C° 0 mm 3 m/s 637 mmHg 56%
    12:00 +6°C° 0 mm 2 m/s 637 mmHg 56%
    13:00 +6°C° 0 mm 2 m/s 636 mmHg 58%
    14:00 +5°C° 0 mm 2 m/s 636 mmHg 60%
    15:00 +5°C° 0 mm 1 m/s 635 mmHg 62%
    16:00 +3°C° 0 mm 2 m/s 634 mmHg 57%
    17:00 +2°C° 0 mm 2 m/s 634 mmHg 53%
    18:00 +1°C° 0 mm 2 m/s 633 mmHg 48%
    19:00 +1°C° 0 mm 2 m/s 633 mmHg 45%
    20:00 +1°C° 0 mm 2 m/s 633 mmHg 43%
    21:00 +1°C° 0 mm 2 m/s 633 mmHg 40%
    22:00 +1°C° 0 mm 2 m/s 633 mmHg 40%
    23:00 +1°C° 0 mm 2 m/s 633 mmHg 40%

    Mâine, 11 Decembrie, Miercuri

    Timp Temperatura Precipitaţii Vânt Presiune Umiditate
    00:00 +2°C° 0 mm 1 m/s 633 mmHg 39%
    01:00 +2°C° 0 mm 1 m/s 632 mmHg 41%
    02:00 +3°C° 0 mm 1 m/s 632 mmHg 42%
    03:00 +3°C° 0 mm 1 m/s 631 mmHg 44%
    04:00 +1°C° 0 mm 2 m/s 631 mmHg 47%
    05:00 +1°C° 0 mm 2 m/s 631 mmHg 50%
    06:00 +1°C° 0 mm 2 m/s 631 mmHg 53%
    07:00 +3°C° 0 mm 1 m/s 631 mmHg 59%
    08:00 +3°C° 0 mm 1 m/s 632 mmHg 66%
    09:00 +4°C° 0 mm 1 m/s 632 mmHg 72%
    10:00 +4°C° 0.3 mm 1 m/s 632 mmHg 75%
    11:00 +3°C° 0.3 mm 2 m/s 632 mmHg 78%
    12:00 +3°C° 0.3 mm 2 m/s 632 mmHg 81%
    13:00 +3°C° 0.4 mm 2 m/s 632 mmHg 82%
    14:00 +2°C° 0.4 mm 2 m/s 631 mmHg 84%
    15:00 +2°C° 0.4 mm 2 m/s 631 mmHg 86%
    16:00 -1°C° 0.1 mm 2 m/s 630 mmHg 87%
    17:00 -2°C° 0.1 mm 2 m/s 630 mmHg 89%
    18:00 -3°C° 0.1 mm 2 m/s 630 mmHg 91%
    19:00 -4°C° 0 mm 2 m/s 629 mmHg 87%
    20:00 -4°C° 0 mm 2 m/s 629 mmHg 84%
    21:00 -5°C° 0 mm 2 m/s 629 mmHg 80%
    22:00 -4°C° 0.4 mm 2 m/s 629 mmHg 83%
    23:00 -4°C° 0.4 mm 2 m/s 629 mmHg 87%

    Poimâine, 12 Decembrie, Joi

    Timp Temperatura Precipitaţii Vânt Presiune Umiditate
    00:00 -3°C° 0.4 mm 2 m/s 629 mmHg 90%
    01:00 -3°C° 0.4 mm 2 m/s 629 mmHg 91%
    02:00 -3°C° 0.4 mm 2 m/s 629 mmHg 92%
    03:00 -3°C° 0.4 mm 2 m/s 628 mmHg 92%
    04:00 -3°C° 0.3 mm 2 m/s 628 mmHg 91%
    05:00 -1°C° 0.3 mm 1 m/s 628 mmHg 91%
    06:00 -2°C° 0.3 mm 1 m/s 628 mmHg 90%
    07:00 -1°C° 0.1 mm 1 m/s 628 mmHg 87%
    08:00 0°C° 0.1 mm 1 m/s 629 mmHg 85%
    09:00 +1°C° 0.1 mm 1 m/s 629 mmHg 82%
    10:00 +2°C° 0 mm 1 m/s 629 mmHg 79%
    11:00 +3°C° 0 mm 1 m/s 629 mmHg 76%
    12:00 +4°C° 0 mm 1 m/s 629 mmHg 73%
    13:00 +3°C° 0 mm 1 m/s 628 mmHg 76%
    14:00 +3°C° 0 mm 1 m/s 627 mmHg 79%
    15:00 +2°C° 0 mm 1 m/s 626 mmHg 82%
    16:00 +1°C° 0 mm 2 m/s 625 mmHg 86%
    17:00 -1°C° 0 mm 2 m/s 624 mmHg 90%
    18:00 -2°C° 0 mm 3 m/s 623 mmHg 93%
    19:00 -2°C° 1 mm 3 m/s 623 mmHg 94%
    20:00 -2°C° 1 mm 3 m/s 622 mmHg 94%
    21:00 -2°C° 1 mm 2 m/s 622 mmHg 95%
    22:00 -1°C° 1.5 mm 2 m/s 621 mmHg 95%
    23:00 -1°C° 1.5 mm 2 m/s 621 mmHg 96%

    13 Decembrie, Vineri

    Timp Temperatura Precipitaţii Vânt Presiune Umiditate
    00:00 -1°C° 1.5 mm 2 m/s 621 mmHg 96%
    01:00 +1°C° 1.3 mm 2 m/s 621 mmHg 96%
    02:00 +1°C° 1.3 mm 2 m/s 620 mmHg 97%
    03:00 +2°C° 1.3 mm 1 m/s 620 mmHg 97%
    04:00 +2°C° 1.7 mm 1 m/s 620 mmHg 97%
    05:00 +2°C° 1.7 mm 1 m/s 619 mmHg 98%
    06:00 +2°C° 1.7 mm 1 m/s 619 mmHg 98%
    07:00 +2°C° 3 mm 1 m/s 619 mmHg 98%
    08:00 +3°C° 3 mm 1 m/s 619 mmHg 98%
    09:00 +3°C° 3 mm 1 m/s 620 mmHg 98%
    10:00 +3°C° 3.6 mm 1 m/s 620 mmHg 98%
    11:00 +2°C° 3.6 mm 2 m/s 620 mmHg 98%
    12:00 +2°C° 3.6 mm 2 m/s 620 mmHg 99%
    13:00 +2°C° 2.9 mm 2 m/s 620 mmHg 98%
    14:00 +1°C° 2.9 mm 3 m/s 621 mmHg 98%
    15:00 +1°C° 2.9 mm 3 m/s 621 mmHg 98%
    16:00 +1°C° 2.2 mm 3 m/s 622 mmHg 98%
    17:00 +1°C° 2.2 mm 3 m/s 622 mmHg 98%
    18:00 +1°C° 2.2 mm 3 m/s 623 mmHg 98%
    19:00 +1°C° 2.1 mm 3 m/s 624 mmHg 99%
    20:00 +2°C° 2.1 mm 2 m/s 624 mmHg 99%
    21:00 +2°C° 2.1 mm 2 m/s 625 mmHg 99%
    22:00 +2°C° 1.4 mm 2 m/s 625 mmHg 99%
    23:00 +2°C° 1.4 mm 2 m/s 625 mmHg 99%

    14 Decembrie, Sâmbătă

    Timp Temperatura Precipitaţii Vânt Presiune Umiditate
    00:00 +3°C° 1.4 mm 2 m/s 626 mmHg 99%
    01:00 +3°C° 0.1 mm 2 m/s 626 mmHg 98%
    02:00 +2°C° 0.1 mm 2 m/s 626 mmHg 98%
    03:00 +2°C° 0.1 mm 2 m/s 626 mmHg 97%
    04:00 +2°C° 0 mm 2 m/s 626 mmHg 96%
    05:00 +2°C° 0 mm 2 m/s 626 mmHg 95%
    06:00 +2°C° 0 mm 2 m/s 626 mmHg 94%
    07:00 +2°C° 0 mm 2 m/s 627 mmHg 94%
    08:00 +3°C° 0 mm 2 m/s 628 mmHg 94%
    09:00 +4°C° 0 mm 1 m/s 629 mmHg 94%
    10:00 +5°C° 0 mm 1 m/s 629 mmHg 93%
    11:00 +6°C° 0 mm 1 m/s 629 mmHg 92%
    12:00 +6°C° 0 mm 0 m/s 629 mmHg 92%
    13:00 +5°C° 0 mm 0 m/s 629 mmHg 93%
    14:00 +5°C° 0 mm 0 m/s 629 mmHg 93%
    15:00 +6°C° 0 mm 1 m/s 629 mmHg 94%
    16:00 +5°C° 0 mm 1 m/s 629 mmHg 92%
    17:00 +3°C° 0 mm 1 m/s 628 mmHg 90%
    18:00 +2°C° 0 mm 1 m/s 628 mmHg 88%
    19:00 +2°C° 0 mm 1 m/s 628 mmHg 90%
    20:00 +2°C° 0 mm 1 m/s 628 mmHg 91%
    21:00 +2°C° 0 mm 1 m/s 628 mmHg 92%
    22:00 +1°C° 0 mm 2 m/s 628 mmHg 93%
    23:00 +2°C° 0 mm 2 m/s 628 mmHg 93%

    15 Decembrie, Duminică

    Timp Temperatura Precipitaţii Vânt Presiune Umiditate
    00:00 +2°C° 0 mm 2 m/s 628 mmHg 93%
    01:00 +1°C° 0 mm 2 m/s 628 mmHg 91%
    02:00 +1°C° 0 mm 2 m/s 627 mmHg 89%
    03:00 -1°C° 0 mm 2 m/s 627 mmHg 87%
    04:00 -1°C° 0 mm 2 m/s 627 mmHg 84%
    05:00 -1°C° 0 mm 2 m/s 627 mmHg 80%
    06:00 +1°C° 0 mm 1 m/s 626 mmHg 77%
    07:00 +2°C° 0 mm 1 m/s 627 mmHg 77%
    08:00 +3°C° 0 mm 1 m/s 628 mmHg 78%
    09:00 +4°C° 0 mm 1 m/s 629 mmHg 78%
    10:00 +5°C° 0 mm 1 m/s 629 mmHg 81%
    11:00 +5°C° 0 mm 0 m/s 629 mmHg 83%
    12:00 +6°C° 0 mm 0 m/s 629 mmHg 86%
    13:00 +5°C° 0 mm 0 m/s 629 mmHg 88%
    14:00 +6°C° 0 mm 1 m/s 629 mmHg 89%
    15:00 +5°C° 0 mm 1 m/s 628 mmHg 91%
    16:00 +4°C° 0 mm 1 m/s 628 mmHg 91%
    17:00 +3°C° 0 mm 1 m/s 628 mmHg 91%
    18:00 +1°C° 0 mm 2 m/s 627 mmHg 91%
    19:00 +1°C° 0 mm 2 m/s 627 mmHg 90%
    20:00 +1°C° 0 mm 2 m/s 627 mmHg 90%
    21:00 +1°C° 0 mm 2 m/s 627 mmHg 89%
    22:00 +1°C° 0 mm 2 m/s 627 mmHg 88%
    23:00 +1°C° 0 mm 2 m/s 627 mmHg 88%
    Arată mai mult